Flag for Austria Weather past 2 weeks in Eisenstadt, Burgenland, Austria

Now
56 °F

Overcast.


Feels Like: 56 °F
Forecast: 36 / 47 °F
Wind: 3 mph from Northwest

Location: Eisenstadt

Current Time: Mar 2, 2015 at 2:00:19 PM

Latest Report: Mar 2, 2015 at 1:00 PM


Visibility: 5 mi

Pressure: 29.65 "Hg

Humidity: 58%

Dew point: 41 °F

Location of EisenstadtLocation

Historic Weather in Eisenstadt — Graph

°F

Eisenstadt temperature yesterday

Maximum temperature yesterday: 53 °F (at 2:00 PM)
Minimum temperature yesterday: 32 °F (at 7:00 AM)
Average temperature yesterday: 43 °F

Past Weeks' High & Low Weather Summary

 TemperatureHumidityPressure
High57 °F (Feb 21, 3:00 PM)100% (Feb 20, 10:00 AM)30.78 "Hg (Feb 20, 10:00 AM)
Low27 °F (Feb 20, 5:00 AM)30% (Feb 21, 12:00 PM)29.57 "Hg (Feb 21, 3:00 PM)
Average39 °F76%30.06 "Hg
* Reported Feb 15 1:00 PM — Mar 2 1:00 PM, Eisenstadt, Weather by CustomWeather, © 2015

Note: Actual official high and low records may vary slightly from our data, if they occured in-between our weather recording intervals... More about our weather records

Advertising

Eisenstadt weather history for previous 24 hours

 ConditionsComfort  
Time TempWeatherWind HumidityBarometerVisibility
1:00 PM
Mon, Mar 2
56 °FOvercast.3 mph58%29.65 "Hg5 mi
12:00 PM49 °FCool.1 mph73%29.66 "HgN/A
11:00 AM48 °FCool.2 mph73%29.65 "HgN/A
10:00 AM46 °FOvercast.No wind78%29.67 "Hg5 mi
9:00 AM42 °FQuite cool.2 mph86%29.68 "HgN/A
8:00 AM41 °FQuite cool.1 mph87%29.69 "HgN/A
7:00 AM41 °FOvercast.2 mph89%29.72 "Hg5 mi
6:00 AM41 °FQuite cool.3 mph90%29.72 "HgN/A
5:00 AM43 °FOvercast.1 mph89%29.77 "Hg7 mi
4:00 AM43 °FOvercast.2 mph90%29.78 "Hg7 mi
3:00 AM43 °FQuite cool.No wind90%29.80 "HgN/A
2:00 AM43 °FQuite cool.1 mph87%29.81 "HgN/A
1:00 AM44 °FQuite cool.1 mph84%29.83 "HgN/A
12:00 AM44 °FQuite cool.1 mph80%29.84 "HgN/A
11:00 PM
Sun, Mar 1
44 °FQuite cool.1 mph78%29.85 "HgN/A
9:00 PM45 °FCool.2 mph78%29.86 "HgN/A
8:00 PM46 °FCool.2 mph80%29.86 "HgN/A
7:00 PM46 °FOvercast.2 mph79%29.85 "Hg9 mi
6:00 PM48 °FCool.1 mph68%29.85 "HgN/A
5:00 PM49 °FCool.2 mph55%29.85 "HgN/A
4:00 PM51 °FOvercast.3 mph48%29.85 "Hg9 mi
3:00 PM52 °FCool.3 mph56%29.85 "HgN/A
2:00 PM53 °FCool.2 mph49%29.85 "HgN/A
Weather by CustomWeather, © 2015

See weather overviewHow to use our weather pages